Location: Marse
(42.1502°N, 110.9866°W)
Time: 20:09:40
(UTC+00:00)

ITUPSAT 1 - Pass Details

Date: 01 July 2022
Orbit: 701 x 711 km, 98.6° (Epoch: 08 August)

Event Time Altitude Azimuth Distance (km) Brightness Sun altitude
Rises 04:23:03 0° 7° (N) 3,109 ? -12.0°
Reaches altitude 10° 04:25:23 10° 1° (N) 2,187 ? -12.3°
Maximum altitude 04:29:56 45° 290° (WNW) 968 ? -12.9°
Drops below altitude 10° 04:34:28 10° 218° (SW) 2,178 ? -13.4°
Sets 04:36:47 0° 212° (SSW) 3,094 ? -13.7°
